Weather History for Franklin, VA

Change the Weather History Date:

Sunday, August 25, 2013

  Actual Average (KSFQ) Record (KSFQ)
Temperature  
Mean Temperature 68 °F -  
Max Temperature 78 °F 86 °F 96 °F (1968)
Min Temperature 57 °F 65 °F 47 °F (1952)
Cooling Degree Days 2    
Growing Degree Days 18 (Base 50)    
Moisture  
Dew Point 59 °F    
Average Humidity 69    
Maximum Humidity 100    
Minimum Humidity 39    
Precipitation  
Precipitation 0.00 in - - ()
Sea Level Pressure  
Sea Level Pressure 30.34 in    
Wind  
Wind Speed 2 mph (NE)    
Max Wind Speed 13 mph    
Max Gust Speed 16 mph    
Visibility 10 miles    
Events      
Averages and records for this station are not official NWS values.
T = Trace of Precipitation, MM = Missing Value Source: NWS Daily Summary

Daily Weather History Graph

Daily Weather History Graph

Search for Another Location

Airport:

Trip Planner

Search our weather history database for the weather conditions in past years. The results will help you decide how hot, cold, wet, or windy it might be!

Date:

Astronomy

Aug. 25, 2013 Rise Set
Actual Time 6:33 AM EDT 7:45 PM EDT
Civil Twilight 6:06 AM EDT 8:12 PM EDT
Nautical Twilight 5:34 AM EDT 8:43 PM EDT
Astronomical Twilight 5:01 AM EDT 9:17 PM EDT
Moon 10:25 PM EDT 11:23 AM EDT
Length of Visible Light 14h 05m
Length of Day
13h 12m
Waning Gibbous, 76% of the Moon is Illuminated
Aug 25
Waning Gibbous
Aug 28
Last Quarter
Sep 5
New
Sep 12
First Quarter
Sep 19
Full

Hourly Weather History & Observations

Time (EDT) Temp. Dew Point Humidity Pressure Visibility Wind Dir Wind Speed Gust Speed Precip Events Conditions
12:15 AM 64.4 °F 64.4 °F 100% 30.32 in 10.0 mi Calm Calm - N/A   Clear
12:35 AM 64.4 °F 64.4 °F 100% 30.33 in 10.0 mi Calm Calm - N/A   Clear
12:55 AM 64.4 °F - N/A% 30.32 in 10.0 mi Calm Calm - N/A   Clear
1:15 AM 64.4 °F 64.4 °F 100% 30.32 in 10.0 mi Calm Calm - N/A   Clear
1:35 AM 64.4 °F - N/A% 30.31 in 10.0 mi Calm Calm - N/A   Clear
1:55 AM 64.4 °F - N/A% 30.31 in 10.0 mi Calm Calm - N/A   Clear
2:15 AM 62.6 °F - N/A% 30.31 in 10.0 mi Calm Calm - N/A   Clear
2:35 AM 62.6 °F - N/A% 30.31 in 10.0 mi Calm Calm - N/A   Clear
2:55 AM 62.6 °F - N/A% 30.31 in 10.0 mi Calm Calm - N/A   Clear
3:15 AM 62.6 °F - N/A% 30.31 in 10.0 mi Calm Calm - N/A   Clear
3:35 AM 62.6 °F - N/A% 30.31 in 10.0 mi Calm Calm - N/A   Clear
3:55 AM 62.6 °F - N/A% 30.31 in 10.0 mi Calm Calm - N/A   Clear
4:15 AM 62.6 °F - N/A% 30.30 in 10.0 mi Calm Calm - N/A   Clear
4:35 AM 60.8 °F - N/A% 30.31 in 10.0 mi Calm Calm - N/A   Clear
4:55 AM 60.8 °F - N/A% 30.31 in 5.0 mi Calm Calm - N/A   Clear
5:15 AM 60.8 °F - N/A% 30.32 in 10.0 mi Calm Calm - N/A   Clear
5:35 AM 60.8 °F - N/A% 30.32 in 10.0 mi Calm Calm - N/A   Clear
5:55 AM 60.8 °F - N/A% 30.33 in 10.0 mi Calm Calm - N/A   Clear
6:15 AM 60.8 °F - N/A% 30.33 in 10.0 mi Calm Calm - N/A   Clear
6:35 AM 60.8 °F - N/A% 30.34 in 10.0 mi Calm Calm - N/A   Clear
6:55 AM 60.8 °F - N/A% 30.35 in 10.0 mi Calm Calm - N/A   Clear
7:15 AM 60.8 °F - N/A% 30.36 in 10.0 mi Calm Calm - N/A   Clear
7:35 AM 62.6 °F - N/A% 30.37 in 10.0 mi Calm Calm - N/A   Clear
7:55 AM 64.4 °F - N/A% 30.38 in 10.0 mi Calm Calm - N/A   Clear
8:15 AM 66.2 °F 66.2 °F 100% 30.38 in 10.0 mi Calm Calm - N/A   Clear
8:35 AM 68.0 °F 66.2 °F 94% 30.38 in 10.0 mi NNE 4.6 mph - N/A   Clear
8:55 AM 69.8 °F 66.2 °F 88% 30.38 in 10.0 mi NNE 4.6 mph - N/A   Clear
9:15 AM 71.6 °F 66.2 °F 83% 30.38 in 10.0 mi NNE 4.6 mph - N/A   Clear
9:35 AM 73.4 °F 64.4 °F 73% 30.39 in 10.0 mi North 6.9 mph - N/A   Clear
9:55 AM 73.4 °F 62.6 °F 69% 30.40 in 10.0 mi NE 8.1 mph - N/A   Scattered Clouds
10:15 AM 75.2 °F 62.6 °F 65% 30.40 in 10.0 mi NE 9.2 mph - N/A   Scattered Clouds
10:35 AM 75.2 °F 62.6 °F 65% 30.40 in 10.0 mi NE 8.1 mph - N/A   Scattered Clouds
10:55 AM 75.2 °F 60.8 °F 61% 30.40 in 10.0 mi ENE 9.2 mph - N/A   Scattered Clouds
11:15 AM 75.2 °F 60.8 °F 61% 30.39 in 10.0 mi NE 8.1 mph - N/A   Clear
11:35 AM 75.2 °F 59.0 °F 57% 30.40 in 10.0 mi NE 11.5 mph - N/A   Clear
11:55 AM 77.0 °F 59.0 °F 54% 30.40 in 10.0 mi NE 8.1 mph - N/A   Clear
12:15 PM 78.8 °F 60.8 °F 54% 30.39 in 10.0 mi NE 4.6 mph - N/A   Clear
12:35 PM 78.8 °F 60.8 °F 54% 30.38 in 10.0 mi NNE 8.1 mph - N/A   Clear
12:55 PM 77.0 °F 60.8 °F 57% 30.38 in 10.0 mi NE 8.1 mph - N/A   Clear
1:15 PM 78.8 °F 60.8 °F 54% 30.37 in 10.0 mi ENE 5.8 mph - N/A   Clear
1:35 PM 78.8 °F 57.2 °F 47% 30.37 in 10.0 mi ENE 10.4 mph 16.1 mph N/A   Clear
1:55 PM 78.8 °F 55.4 °F 44% 30.37 in 10.0 mi East 9.2 mph - N/A   Clear
2:15 PM 78.8 °F 57.2 °F 47% 30.36 in 10.0 mi East 8.1 mph 11.5 mph N/A   Clear
2:35 PM 78.8 °F 57.2 °F 47% 30.35 in 10.0 mi ENE 12.7 mph - N/A   Clear
2:55 PM 78.8 °F 57.2 °F 47% 30.35 in 10.0 mi East 9.2 mph - N/A   Clear
3:15 PM 78.8 °F 57.2 °F 47% 30.34 in 10.0 mi NE 9.2 mph - N/A   Clear
3:35 PM 78.8 °F 57.2 °F 47% 30.33 in 10.0 mi East 6.9 mph 10.4 mph N/A   Clear
3:55 PM 78.8 °F 57.2 °F 47% 30.33 in 10.0 mi ENE 8.1 mph - N/A   Clear
4:15 PM 78.8 °F 57.2 °F 47% 30.34 in 10.0 mi East 11.5 mph - N/A   Clear
4:35 PM 78.8 °F 55.4 °F 44% 30.33 in 10.0 mi ENE 9.2 mph - N/A   Clear
4:55 PM 78.8 °F 53.6 °F 42% 30.34 in 10.0 mi ENE 9.2 mph - N/A   Clear
5:15 PM 78.8 °F 53.6 °F 42% 30.34 in 10.0 mi NE 8.1 mph - N/A   Clear
5:35 PM 78.8 °F 51.8 °F 39% 30.33 in 10.0 mi NE 9.2 mph - N/A   Clear
5:55 PM 77.0 °F 53.6 °F 44% 30.33 in 10.0 mi NE 5.8 mph - N/A   Clear
6:15 PM 77.0 °F 53.6 °F 44% 30.32 in 10.0 mi NE 6.9 mph - N/A   Clear
6:35 PM 75.2 °F 55.4 °F 50% 30.32 in 10.0 mi NE 4.6 mph - N/A   Clear
6:55 PM 73.4 °F 55.4 °F 53% 30.32 in 10.0 mi ENE 5.8 mph - N/A   Clear
7:15 PM 71.6 °F 57.2 °F 60% 30.31 in 10.0 mi Calm Calm - N/A   Clear
7:35 PM 69.8 °F 57.2 °F 64% 30.31 in 10.0 mi Calm Calm - N/A   Clear
7:55 PM 66.2 °F 59.0 °F 78% 30.31 in 10.0 mi Calm Calm - N/A   Clear
8:15 PM 66.2 °F 60.8 °F 83% 30.31 in 10.0 mi Calm Calm - N/A   Clear
8:35 PM 64.4 °F 60.8 °F 88% 30.31 in 10.0 mi Calm Calm - N/A   Clear
8:55 PM 62.6 °F 60.8 °F 94% 30.32 in 10.0 mi Calm Calm - N/A   Clear
9:15 PM 60.8 °F 60.8 °F 100% 30.33 in 10.0 mi Calm Calm - N/A   Clear
9:35 PM 62.6 °F 60.8 °F 94% 30.32 in 10.0 mi Calm Calm - N/A   Clear
9:55 PM 60.8 °F 59.0 °F 94% 30.32 in 10.0 mi Calm Calm - N/A   Clear
10:15 PM 60.8 °F 59.0 °F 94% 30.32 in 10.0 mi Calm Calm - N/A   Clear
10:35 PM 60.8 °F 59.0 °F 94% 30.32 in 10.0 mi Calm Calm - N/A   Clear
10:55 PM 59.0 °F 59.0 °F 100% 30.32 in 10.0 mi Calm Calm - N/A   Clear
11:15 PM 59.0 °F 59.0 °F 100% 30.33 in 10.0 mi Calm Calm - N/A   Clear
11:35 PM 57.2 °F 57.2 °F 100% 30.33 in 10.0 mi Calm Calm - N/A   Clear
11:55 PM 57.2 °F 57.2 °F 100% 30.34 in 10.0 mi Calm Calm - N/A   Clear